QTR25A VTBS-VTSM

Flight info

Callsign QTR25A
Flight time 0h 42m
Altitude 33000
Route KASNI1G KASNI M757 MABKO W33 UPNEP
Aircraft A20N/M-SDE2E3FGHIRWXY/LB1

Departure

Time 2026-04-14 08:47
Airport Suvarnabhumi Airport (VTBS)

Arrival

Time 2026-04-14 09:29
Airport Samui International Airport (VTSM)
Time Latitude Longitude Altitude Speed Heading
2026-04-14 08:31 13.69567 100.74717 13 ft 0 kts 104°
2026-04-14 08:39 13.69569 100.74712 40 ft 2 kts 103°
2026-04-14 08:39 13.69571 100.74702 40 ft 2 kts 101°
2026-04-14 08:40 13.69574 100.74689 13 ft 2 kts 104°
2026-04-14 08:40 13.69577 100.74677 14 ft 2 kts 107°
2026-04-14 08:40 13.69581 100.74664 14 ft 2 kts 109°
2026-04-14 08:40 13.69585 100.74652 14 ft 2 kts 111°
2026-04-14 08:41 13.69590 100.74637 14 ft 0 kts 103°
2026-04-14 08:41 13.69594 100.74614 14 ft 4 kts 72°
2026-04-14 08:41 13.69587 100.74602 14 ft 0 kts 25°
2026-04-14 08:43 13.69599 100.74608 16 ft 4 kts 25°
2026-04-14 08:43 13.69641 100.74622 13 ft 9 kts 15°
2026-04-14 08:43 13.69716 100.74640 13 ft 13 kts 12°
2026-04-14 08:44 13.69816 100.74641 14 ft 15 kts 326°
2026-04-14 08:44 13.69854 100.74535 13 ft 18 kts 284°
2026-04-14 08:44 13.69959 100.74502 13 ft 20 kts 15°
2026-04-14 08:44 13.70107 100.74541 14 ft 23 kts 14°
2026-04-14 08:45 13.70267 100.74576 13 ft 22 kts 354°
2026-04-14 08:45 13.70318 100.74501 14 ft 11 kts 284°
2026-04-14 08:45 13.70342 100.74415 13 ft 14 kts 284°
2026-04-14 08:45 13.70315 100.74316 14 ft 16 kts 230°
2026-04-14 08:46 13.70248 100.74285 14 ft 17 kts 195°
2026-04-14 08:46 13.70010 100.74222 13 ft 66 kts 194°
2026-04-14 08:46 13.69065 100.73976 14 ft 140 kts 194°
2026-04-14 08:46 13.68055 100.73719 418 ft 153 kts 193°
2026-04-14 08:47 13.67381 100.73529 801 ft 159 kts 197°
2026-04-14 08:47 13.66332 100.73221 1470 ft 158 kts 193°
2026-04-14 08:47 13.65245 100.72926 2015 ft 168 kts 193°
2026-04-14 08:47 13.64035 100.72626 2390 ft 191 kts 193°
2026-04-14 08:48 13.62652 100.72282 2729 ft 218 kts 193°
2026-04-14 08:48 13.61105 100.71888 3281 ft 240 kts 194°
2026-04-14 08:48 13.59409 100.71445 3851 ft 261 kts 194°
2026-04-14 08:48 13.57611 100.70971 4661 ft 270 kts 194°
2026-04-14 08:49 13.55780 100.70487 5596 ft 274 kts 194°
2026-04-14 08:49 13.53911 100.69998 6486 ft 279 kts 192°
2026-04-14 08:49 13.51960 100.69791 7101 ft 295 kts 183°
2026-04-14 08:49 13.49830 100.69688 7468 ft 319 kts 182°
2026-04-14 08:50 13.47533 100.69597 7829 ft 340 kts 182°
2026-04-14 08:50 13.45126 100.69500 8415 ft 352 kts 182°
2026-04-14 08:50 13.42638 100.69394 9039 ft 362 kts 182°
2026-04-14 08:50 13.40081 100.69282 9670 ft 372 kts 182°
2026-04-14 08:51 13.37464 100.69164 10253 ft 380 kts 182°
2026-04-14 08:51 13.34813 100.69044 10980 ft 383 kts 182°
2026-04-14 08:51 13.32147 100.68923 11770 ft 384 kts 182°
2026-04-14 08:51 13.29469 100.68801 12579 ft 385 kts 182°
2026-04-14 08:52 13.26787 100.68680 13412 ft 385 kts 182°
2026-04-14 08:52 13.24112 100.68559 14172 ft 385 kts 182°
2026-04-14 08:52 13.21434 100.68439 14934 ft 385 kts 182°
2026-04-14 08:52 13.18794 100.68320 15706 ft 384 kts 183°
2026-04-14 08:53 13.16091 100.68198 16508 ft 383 kts 183°
2026-04-14 08:53 13.13439 100.68079 17324 ft 381 kts 183°
2026-04-14 08:53 13.10838 100.67962 18148 ft 378 kts 184°
2026-04-14 08:53 13.08212 100.67843 18884 ft 375 kts 184°
2026-04-14 08:54 13.05614 100.67743 19630 ft 372 kts 182°
2026-04-14 08:54 13.03029 100.67676 20398 ft 369 kts 182°
2026-04-14 08:54 13.00472 100.67618 21185 ft 365 kts 181°
2026-04-14 08:54 12.97944 100.67560 21998 ft 361 kts 181°
2026-04-14 08:55 12.95432 100.67498 22697 ft 361 kts 181°
2026-04-14 08:55 12.92917 100.67434 23342 ft 361 kts 181°
2026-04-14 08:55 12.90403 100.67367 23893 ft 361 kts 181°
2026-04-14 08:55 12.87925 100.67302 24433 ft 360 kts 181°
2026-04-14 08:56 12.85425 100.67237 24992 ft 359 kts 181°
2026-04-14 08:56 12.82917 100.67171 25387 ft 365 kts 181°
2026-04-14 08:56 12.80332 100.67103 25503 ft 378 kts 181°
2026-04-14 08:56 12.77652 100.67033 25611 ft 391 kts 181°
2026-04-14 08:57 12.74886 100.66961 25715 ft 404 kts 181°
2026-04-14 08:57 12.72029 100.66887 25817 ft 416 kts 181°
2026-04-14 08:57 12.69078 100.66810 25835 ft 431 kts 181°
2026-04-14 08:57 12.66034 100.66730 25834 ft 444 kts 181°
2026-04-14 08:58 12.62897 100.66616 25834 ft 457 kts 182°
2026-04-14 08:58 12.59679 100.66424 25836 ft 469 kts 183°
2026-04-14 08:58 12.56378 100.66206 25835 ft 480 kts 183°
2026-04-14 08:58 12.53015 100.65987 25831 ft 489 kts 183°
2026-04-14 08:59 12.49576 100.65771 25828 ft 498 kts 183°
2026-04-14 08:59 12.46093 100.65559 25833 ft 504 kts 183°
2026-04-14 08:59 12.42577 100.65349 25832 ft 508 kts 183°
2026-04-14 08:59 12.39090 100.65142 25831 ft 509 kts 183°
2026-04-14 09:00 12.35552 100.64932 25832 ft 509 kts 183°
2026-04-14 09:00 12.32069 100.64726 25831 ft 509 kts 183°
2026-04-14 09:00 12.28541 100.64517 25831 ft 509 kts 183°
2026-04-14 09:00 12.25001 100.64307 25828 ft 509 kts 183°
2026-04-14 09:01 12.21463 100.64097 25829 ft 509 kts 183°
2026-04-14 09:01 12.17929 100.63888 25829 ft 509 kts 183°
2026-04-14 09:01 12.14394 100.63678 25830 ft 509 kts 183°
2026-04-14 09:01 12.10861 100.63469 25829 ft 509 kts 183°
2026-04-14 09:02 12.07318 100.63259 25830 ft 509 kts 183°
2026-04-14 09:02 12.03777 100.63049 25831 ft 509 kts 183°
2026-04-14 09:02 12.00237 100.62840 25829 ft 509 kts 183°
2026-04-14 09:02 11.96706 100.62616 25834 ft 509 kts 184°
2026-04-14 09:03 11.93191 100.62388 25835 ft 509 kts 184°
2026-04-14 09:03 11.89654 100.62167 25834 ft 509 kts 183°
2026-04-14 09:03 11.86117 100.61953 25837 ft 509 kts 183°
2026-04-14 09:03 11.82570 100.61745 25836 ft 509 kts 183°
2026-04-14 09:04 11.79029 100.61538 25832 ft 509 kts 183°
2026-04-14 09:04 11.75482 100.61332 25835 ft 509 kts 183°
2026-04-14 09:04 11.71950 100.61127 25834 ft 509 kts 183°
2026-04-14 09:04 11.68410 100.60921 25834 ft 509 kts 183°
2026-04-14 09:05 11.64868 100.60715 25834 ft 509 kts 183°
2026-04-14 09:05 11.61328 100.60509 25838 ft 509 kts 183°
2026-04-14 09:05 11.57789 100.60303 25838 ft 509 kts 183°
2026-04-14 09:05 11.54251 100.60096 25838 ft 509 kts 183°
2026-04-14 09:06 11.50710 100.59889 25840 ft 510 kts 183°
2026-04-14 09:06 11.47168 100.59682 25839 ft 509 kts 183°
2026-04-14 09:06 11.43633 100.59475 25840 ft 509 kts 183°
2026-04-14 09:06 11.40092 100.59268 25841 ft 509 kts 183°
2026-04-14 09:07 11.36555 100.59061 25839 ft 509 kts 183°
2026-04-14 09:07 11.33018 100.58854 25842 ft 509 kts 183°
2026-04-14 09:07 11.29473 100.58647 25840 ft 509 kts 183°
2026-04-14 09:07 11.25929 100.58440 25842 ft 509 kts 183°
2026-04-14 09:08 11.22434 100.58231 25842 ft 509 kts 184°
2026-04-14 09:08 11.18900 100.58006 25842 ft 509 kts 184°
2026-04-14 09:08 11.15361 100.57783 25842 ft 509 kts 184°
2026-04-14 09:08 11.11826 100.57568 25842 ft 509 kts 183°
2026-04-14 09:09 11.08284 100.57360 25843 ft 509 kts 183°
2026-04-14 09:09 11.04740 100.57154 25843 ft 509 kts 183°
2026-04-14 09:09 11.01205 100.56949 25844 ft 509 kts 183°
2026-04-14 09:09 10.97666 100.56745 25844 ft 509 kts 183°
2026-04-14 09:10 10.94112 100.56540 25843 ft 510 kts 183°
2026-04-14 09:10 10.90565 100.56335 25842 ft 509 kts 183°
2026-04-14 09:10 10.87027 100.56130 25843 ft 509 kts 183°
2026-04-14 09:10 10.83487 100.55925 25785 ft 507 kts 183°
2026-04-14 09:11 10.79980 100.55721 25327 ft 503 kts 183°
2026-04-14 09:11 10.76486 100.55518 24938 ft 503 kts 183°
2026-04-14 09:11 10.72995 100.55315 24603 ft 501 kts 183°
2026-04-14 09:11 10.69522 100.55113 24269 ft 498 kts 183°
2026-04-14 09:12 10.66113 100.54915 23947 ft 495 kts 183°
2026-04-14 09:12 10.62670 100.54716 23621 ft 493 kts 182°
2026-04-14 09:12 10.59243 100.54516 23268 ft 491 kts 182°
2026-04-14 09:12 10.55835 100.54318 22887 ft 488 kts 182°
2026-04-14 09:13 10.52450 100.54122 22493 ft 485 kts 182°
2026-04-14 09:13 10.49090 100.53927 22121 ft 482 kts 182°
2026-04-14 09:13 10.45769 100.53733 21750 ft 473 kts 182°
2026-04-14 09:13 10.42531 100.53545 21388 ft 457 kts 182°
2026-04-14 09:14 10.39439 100.53365 21024 ft 444 kts 183°
2026-04-14 09:14 10.36390 100.53188 20668 ft 443 kts 183°
2026-04-14 09:14 10.33276 100.53008 20312 ft 444 kts 183°
2026-04-14 09:14 10.30202 100.52829 19955 ft 441 kts 183°
2026-04-14 09:15 10.27151 100.52652 19611 ft 438 kts 183°
2026-04-14 09:15 10.24124 100.52476 19267 ft 435 kts 183°
2026-04-14 09:15 10.21093 100.52300 18927 ft 433 kts 183°
2026-04-14 09:15 10.18098 100.52126 18592 ft 431 kts 183°
2026-04-14 09:16 10.15112 100.51952 18261 ft 429 kts 183°
2026-04-14 09:16 10.12143 100.51779 17897 ft 426 kts 183°
2026-04-14 09:16 10.09187 100.51606 17480 ft 424 kts 183°
2026-04-14 09:16 10.06249 100.51433 17032 ft 421 kts 183°
2026-04-14 09:17 10.03331 100.51263 16564 ft 418 kts 182°
2026-04-14 09:17 10.00431 100.51093 16085 ft 415 kts 182°
2026-04-14 09:17 9.97555 100.50926 15605 ft 412 kts 182°
2026-04-14 09:17 9.94759 100.50762 15139 ft 404 kts 182°
2026-04-14 09:18 9.92006 100.50601 14671 ft 388 kts 182°
2026-04-14 09:18 9.89320 100.50444 14213 ft 374 kts 182°
2026-04-14 09:18 9.86766 100.50295 13762 ft 362 kts 182°
2026-04-14 09:18 9.84278 100.50150 13209 ft 354 kts 182°
2026-04-14 09:19 9.81885 100.50011 12734 ft 343 kts 182°
2026-04-14 09:19 9.79532 100.49874 12275 ft 334 kts 182°
2026-04-14 09:19 9.77242 100.49741 11814 ft 326 kts 182°
2026-04-14 09:19 9.75001 100.49556 11362 ft 322 kts 191°
2026-04-14 09:20 9.72942 100.48699 10919 ft 322 kts 214°
2026-04-14 09:20 9.71379 100.47090 10472 ft 322 kts 237°
2026-04-14 09:20 9.70582 100.44996 10106 ft 318 kts 261°
2026-04-14 09:20 9.70655 100.42779 9757 ft 314 kts 282°
2026-04-14 09:21 9.71219 100.40653 9359 ft 310 kts 287°
2026-04-14 09:21 9.71822 100.38563 8962 ft 307 kts 285°
2026-04-14 09:21 9.72336 100.36470 8565 ft 305 kts 283°
2026-04-14 09:21 9.72762 100.34370 8172 ft 302 kts 281°
2026-04-14 09:22 9.73131 100.32284 7789 ft 300 kts 280°
2026-04-14 09:22 9.73460 100.30202 7407 ft 298 kts 276°
2026-04-14 09:22 9.73522 100.28124 7079 ft 294 kts 269°
2026-04-14 09:22 9.73507 100.26060 6724 ft 291 kts 270°
2026-04-14 09:23 9.73502 100.24020 6383 ft 288 kts 270°
2026-04-14 09:23 9.73501 100.22003 6013 ft 283 kts 270°
2026-04-14 09:23 9.73501 100.20037 5648 ft 275 kts 270°
2026-04-14 09:23 9.73501 100.18116 5286 ft 269 kts 270°
2026-04-14 09:24 9.73500 100.16258 4930 ft 264 kts 270°
2026-04-14 09:24 9.73500 100.14411 4581 ft 259 kts 270°
2026-04-14 09:24 9.73496 100.12588 4205 ft 258 kts 268°
2026-04-14 09:24 9.73048 100.10851 3851 ft 256 kts 239°
2026-04-14 09:25 9.71853 100.09570 3489 ft 247 kts 210°
2026-04-14 09:25 9.70337 100.08820 3137 ft 238 kts 200°
2026-04-14 09:25 9.68795 100.08234 2714 ft 235 kts 199°
2026-04-14 09:25 9.67315 100.07670 2305 ft 235 kts 200°
2026-04-14 09:26 9.65779 100.07040 1870 ft 234 kts 201°
2026-04-14 09:26 9.64348 100.06411 1617 ft 211 kts 202°
2026-04-14 09:26 9.63102 100.05844 1531 ft 185 kts 201°
2026-04-14 09:26 9.61968 100.05540 1437 ft 154 kts 179°
2026-04-14 09:27 9.60986 100.05640 1358 ft 136 kts 169°
2026-04-14 09:27 9.60030 100.05742 1119 ft 137 kts 172°
2026-04-14 09:27 9.59097 100.05815 945 ft 131 kts 172°
2026-04-14 09:27 9.58187 100.05908 748 ft 133 kts 169°
2026-04-14 09:28 9.57288 100.06015 530 ft 127 kts 172°
2026-04-14 09:28 9.56415 100.06097 325 ft 127 kts 173°
2026-04-14 09:28 9.55538 100.06182 100 ft 124 kts 172°
2026-04-14 09:28 9.54706 100.06263 58 ft 105 kts 174°
2026-04-14 09:29 9.54255 100.06314 54 ft 53 kts 173°
2026-04-14 09:29 9.54020 100.06332 59 ft 49 kts 179°
2026-04-14 09:29 9.53851 100.06337 62 ft 9 kts 129°
2026-04-14 09:29 9.53860 100.06353 58 ft 2 kts 11°
2026-04-14 09:30 9.53901 100.06350 61 ft 10 kts 353°
2026-04-14 09:30 9.53990 100.06336 60 ft 16 kts 351°
2026-04-14 09:30 9.54200 100.06315 55 ft 69 kts 354°
2026-04-14 09:30 9.54994 100.06233 58 ft 156 kts 354°
2026-04-14 09:31 9.56181 100.06097 618 ft 184 kts 353°